Simultaneous Nadir Overpasses (SNOs) Predictions

Prediction of SNOs between NOAA-19 and TERRA Satellite Orbit:

Table of predicted SNOs for the next 14.0 days since TLE Epoch: 7/20/2024
Index Date (NOAA-19) Time (NOAA-19) Lat,Lon (NOAA-19) SZA (NOAA-19 ) Date (TERRA) Time (TERRA) Lat,Lon (TERRA) SZA (TERRA ) Distance(km) Time Diff (sec)
1 07/20/2024 22:54:42 77.46,-158.38 57.00 07/20/2024 22:55:10 77.47,-158.29 57.01 2.55 28
2 07/20/2024 23:45:25 -77.91, 11.20 122.51 07/20/2024 23:44:22 -77.90, 11.15 122.52 1.36 63
3 07/23/2024 01:53:42 77.23, 155.83 57.17 07/23/2024 01:54:52 77.23, 155.83 57.18 0.27 70
4 07/23/2024 02:44:28 -77.56, -35.28 122.46 07/23/2024 02:44:06 -77.57, -35.18 122.45 2.74 22
5 07/25/2024 05:43:26 -77.40, -80.75 122.18 07/25/2024 05:43:46 -77.39, -80.83 122.20 2.31 20
6 07/27/2024 08:42:30 -76.98,-127.36 122.15 07/27/2024 08:43:30 -76.99,-127.26 122.14 2.76 60
7 07/27/2024 09:33:20 77.53, 42.46 58.45 07/27/2024 09:32:39 77.53, 42.44 58.44 0.83 41
8 07/29/2024 12:32:22 77.18, -3.89 58.57 07/29/2024 12:32:21 77.19, -3.78 58.58 3.01 1
9 07/31/2024 15:31:19 77.02, -49.29 58.92 07/31/2024 15:31:59 77.01, -49.36 58.92 2.05 40
10 07/31/2024 16:22:06 -77.34, 119.47 120.73 07/31/2024 16:21:13 -77.35, 119.58 120.72 3.15 53



Historial Predications of SNOs between NOAA-19 and TERRA
